Location: Newark
(48.9358°N, 1.4000°E)
Time: 20:57:35
(UTC+00:00)

ISS - Visible Passes

Search period start: 18 October 2019 00:00
Search period end: 28 October 2019 00:00
Orbit: 411 x 421 km, 51.6° (Epoch: 19 October)

Date Brightness Start Highest point End Pass type
(mag) Time Alt. Az. Time Alt. Az. Time Alt. Az.
23 Oct -0.6 05:37:49 10° SSE 05:39:11 12° SE 05:40:32 10° ESE visible
25 Oct -1.6 05:35:30 10° SSW 05:38:22 26° SE 05:41:13 10° E visible
26 Oct -1.1 04:47:38 10° S 04:49:56 17° SE 04:52:14 10° E visible
27 Oct -0.8 04:00:52 11° SSE 04:01:32 11° SE 04:02:35 10° ESE visible
27 Oct -3.1 05:34:22 10° SW 05:37:40 53° SSE 05:40:59 10° ENE visible
